Location: Fernhill
(41.0167°S, 175.6333°E)
Time: 09:10:51
(UTC+00:00)

Cosmos 2098 Rocket - Pass Details

Date: 08 November 2025
Orbit: 350 x 871 km, 82.9° (Epoch: 11 December)

Event Time Altitude Azimuth Distance (km) Brightness Sun altitude
Rises 08:31:04 0° 187° (S) 3,305 7.5 -14.5°
Reaches altitude 10° 08:33:37 10° 186° (S) 2,294 6.6 -14.9°
Maximum altitude 08:38:46 84° 97° (E) 681 3.2 -15.7°
Enters shadow 08:41:43 21° 9° (N) 1,398 4.4 -16.1°
